Weather History for Baltimore Martin, MD

Change the Weather History Date:

Sunday, November 18, 2012

  Actual Average Record
Temperature  
Mean Temperature 45 °F -  
Max Temperature 53 °F 51 °F 69 °F (2013)
Min Temperature 37 °F 36 °F 24 °F (1997)
Degree Days  
Heating Degree Days 20    
Moisture  
Dew Point 37 °F    
Average Humidity 77    
Maximum Humidity 93    
Minimum Humidity 58    
Precipitation  
Precipitation 0.00 in - - ()
Sea Level Pressure  
Sea Level Pressure 30.59 in    
Wind  
Wind Speed 1 mph (NNE)    
Max Wind Speed 10 mph    
Max Gust Speed -    
Visibility 10 miles    
Events      
Averages and records for this station are not official NWS values.
T = Trace of Precipitation, MM = Missing Value Source: NWS Daily Summary

Daily Weather History Graph

Daily Weather History Graph

Search for Another Location

Airport:

Trip Planner

Search our weather history database for the weather conditions in past years. The results will help you decide how hot, cold, wet, or windy it might be!

Date:

Astronomy

Nov. 18, 2012 Rise Set
Actual Time 6:53 AM EST 4:48 PM EST
Civil Twilight 6:24 AM EST 5:17 PM EST
Nautical Twilight 5:51 AM EST 5:49 PM EST
Astronomical Twilight 5:19 AM EST 6:21 PM EST
Moon 11:18 AM EST (11/18) 10:04 PM EST (11/18)
Length of Visible Light 10h 53m
Length of Day
9h 55m
Waxing Crescent, 30% of the Moon is Illuminated
Nov 18
Waxing Crescent
Nov 20
First Quarter
Nov 28
Full
Dec 6
Last Quarter
Dec 13
New

Hourly Weather History & Observations

Time (EST) Temp. Windchill Dew Point Humidity Pressure Visibility Wind Dir Wind Speed Gust Speed Precip Events Conditions
12:18 AM 37.4 °F - 33.8 °F 87% 30.62 in 10.0 mi Calm Calm - N/A   Clear
12:39 AM 37.4 °F - 33.8 °F 87% 30.62 in 10.0 mi Calm Calm - N/A   Clear
1:00 AM 37.4 °F - 35.6 °F 93% 30.60 in 10.0 mi Calm Calm - N/A   Clear
1:21 AM 37.4 °F - 35.6 °F 93% 30.62 in 10.0 mi Calm Calm - N/A   Clear
1:42 AM 37.4 °F - 35.6 °F 93% 30.62 in 10.0 mi Calm Calm - N/A   Clear
2:03 AM 37.4 °F - 35.6 °F 93% 30.62 in 10.0 mi Calm Calm - N/A   Clear
2:24 AM 37.4 °F - 35.6 °F 93% 30.62 in 10.0 mi Calm Calm - N/A   Clear
3:06 AM 39.2 °F - 35.6 °F 87% 30.61 in 10.0 mi Calm Calm - N/A   Clear
3:27 AM 39.2 °F - 35.6 °F 87% 30.61 in 10.0 mi Calm Calm - N/A   Clear
3:48 AM 37.4 °F - 35.6 °F 93% 30.61 in 10.0 mi Calm Calm - N/A   Clear
4:12 AM 37.4 °F - 35.6 °F 93% 30.61 in 10.0 mi Calm Calm - N/A   Clear
4:33 AM 37.4 °F - 35.6 °F 93% 30.61 in 10.0 mi Calm Calm - N/A   Clear
4:36 AM 37.4 °F - 35.6 °F 93% 30.61 in 10.0 mi Calm Calm - N/A   Clear
5:55 AM 39.2 °F - 35.6 °F 87% 30.63 in 10.0 mi Calm Calm - N/A   Scattered Clouds
6:50 AM 39.2 °F - 35.6 °F 87% 30.63 in 5.0 mi Calm Calm - N/A   Scattered Clouds
7:55 AM 39.2 °F - 33.8 °F 81% 30.64 in 7.0 mi Calm Calm - N/A   Scattered Clouds
8:50 AM 42.8 °F - 33.8 °F 70% 30.64 in 7.0 mi Calm Calm - N/A   Mostly Cloudy
9:45 AM 46.4 °F 44.3 °F 35.6 °F 66% 30.64 in 7.0 mi NE 4.6 mph - N/A   Mostly Cloudy
10:50 AM 50.0 °F - 37.4 °F 62% 30.63 in 7.0 mi ENE 10.4 mph - N/A   Mostly Cloudy
11:50 AM 50.0 °F - 39.2 °F 66% 30.61 in 10.0 mi ENE 9.2 mph - N/A   Mostly Cloudy
12:45 PM 51.8 °F - 39.2 °F 62% 30.59 in 10.0 mi NE 5.8 mph - N/A   Mostly Cloudy
1:45 PM 53.6 °F - 39.2 °F 58% 30.57 in 10.0 mi ENE 5.8 mph - N/A   Scattered Clouds
2:45 PM 53.6 °F - 39.2 °F 58% 30.56 in 10.0 mi ENE 3.5 mph - N/A   Scattered Clouds
3:45 PM 51.8 °F - 39.2 °F 62% 30.56 in 10.0 mi NE 5.8 mph - N/A   Mostly Cloudy
4:45 PM 50.0 °F - 39.2 °F 66% 30.56 in 10.0 mi NE 4.6 mph - N/A   Mostly Cloudy
5:55 PM 50.0 °F - 39.2 °F 66% 30.56 in 10.0 mi NE 4.6 mph - N/A   Overcast
6:45 PM 50.0 °F - 39.2 °F 66% 30.57 in 10.0 mi NNE 3.5 mph - N/A   Overcast
7:45 PM 48.2 °F - 39.2 °F 71% 30.58 in 10.0 mi NNE 3.5 mph - N/A   Mostly Cloudy
8:45 PM 48.2 °F - 39.2 °F 71% 30.57 in 10.0 mi Calm Calm - N/A   Mostly Cloudy
9:45 PM 48.2 °F - 39.2 °F 71% 30.56 in 10.0 mi Calm Calm - N/A   Overcast
9:54 PM 48.2 °F - 37.4 °F 66% 30.56 in 10.0 mi Calm Calm - N/A   Overcast
10:15 PM 46.4 °F - 37.4 °F 71% 30.55 in 10.0 mi Calm Calm - N/A   Mostly Cloudy
10:57 PM 46.4 °F 44.3 °F 37.4 °F 71% 30.54 in 10.0 mi NNW 4.6 mph - N/A   Clear
11:18 PM 46.4 °F 44.3 °F 37.4 °F 71% 30.54 in 10.0 mi NNW 4.6 mph - N/A   Clear
11:39 PM 44.6 °F 43.1 °F 37.4 °F 76% 30.54 in 10.0 mi NNW 3.5 mph - N/A   Clear